CST,Max TemperatureF,Mean TemperatureF,Min TemperatureF,Max Dew PointF,MeanDew PointF,Min DewpointF,Max Humidity, Mean Humidity, Min Humidity, Max Sea Level PressureIn, Mean Sea Level PressureIn, Min Sea Level PressureIn, Max VisibilityMiles, Mean VisibilityMiles, Min VisibilityMiles, Max Wind SpeedMPH, Mean Wind SpeedMPH, Max Gust SpeedMPH,PrecipitationIn, CloudCover, Events, WindDirDegrees
2014-1-1,60,46,32,45,35,27,87,68,44,30.21,30.05,29.88,10,10,10,23,5,33,0.00,,,216
2014-1-2,35,28,21,27,20,16,93,72,52,30.50,30.41,30.18,10,10,10,20,7,25,0.00,,,343
2014-1-3,48,34,19,27,22,18,100,67,40,30.50,30.31,30.06,10,10,7,16,3,22,0.00,,,166
2014-1-4,53,45,37,45,37,27,87,74,57,30.06,29.89,29.79,10,10,10,26,10,39,0.00,,,186
2014-1-5,42,30,17,41,23,5,100,84,58,30.54,30.10,29.77,10,8,2,12,3,20,0.12,,Rain-Snow,346
2014-1-6,21,16,12,10,4,-2,92,63,39,30.74,30.65,30.58,10,10,10,14,4,24,0.00,,,308
2014-1-7,46,29,12,21,16,9,92,64,34,30.57,30.42,30.30,10,10,10,16,4,24,0.00,,,201
2014-1-8,39,36,32,36,30,14,100,83,38,30.34,30.29,30.23,10,6,2,15,5,,0.10,,Rain,231
2014-1-9,37,35,33,37,36,34,100,100,93,30.28,30.21,30.08,10,8,3,6,2,,0.00,,Snow,4
2014-1-10,59,48,37,57,47,37,100,98,71,30.06,29.81,29.62,10,7,0,18,2,28,0.28,,Fog-Rain-Thunderstorm,205
2014-1-11,60,46,33,43,36,32,100,78,36,30.06,29.96,29.77,10,10,1,16,6,24,0.00,,,221
2014-1-12,71,50,30,46,35,30,100,58,26,30.04,29.88,29.74,10,10,10,25,8,39,0.00,,,198
2014-1-13,60,48,35,54,39,32,93,63,44,30.02,29.91,29.74,10,10,10,22,11,32,0.00,,,249
2014-1-14,55,44,32,43,30,19,100,63,37,30.28,30.09,29.95,10,10,10,17,7,22,0.00,,Rain,287
2014-1-15,48,38,28,32,23,18,93,59,37,30.36,30.23,30.03,10,10,5,16,4,24,0.00,,,297
2014-1-16,60,48,35,34,28,19,75,47,25,30.12,30.01,29.94,10,10,10,20,9,28,0.00,,,262
2014-1-17,44,36,28,27,18,10,86,48,27,30.31,30.23,30.13,10,10,10,22,11,34,0.00,,,302
2014-1-18,64,45,26,32,28,23,100,54,30,30.17,30.04,29.90,10,10,10,22,7,30,0.00,,,266
2014-1-19,60,42,24,32,30,23,93,58,31,30.26,30.14,30.00,10,10,10,13,6,21,0.00,,,231
2014-1-20,71,53,35,41,33,28,81,49,31,30.21,29.97,29.85,10,10,10,18,6,28,0.00,,,257
2014-1-21,48,34,21,28,16,9,93,54,35,30.46,30.32,30.21,10,10,10,15,7,30,0.00,,,332
2014-1-22,51,36,21,27,22,19,100,67,37,30.30,30.20,30.13,10,10,10,9,1,16,0.00,,,2
2014-1-23,35,26,17,27,9,0,70,44,29,30.82,30.62,30.31,10,10,10,17,8,24,0.00,,,357
2014-1-24,41,26,10,14,8,1,92,54,19,30.81,30.51,30.13,10,10,10,16,4,22,0.00,,,207
2014-1-25,62,48,32,37,25,12,100,49,35,30.11,30.03,29.97,10,10,10,14,8,18,0.00,,,232
2014-1-26,71,50,30,39,33,27,100,64,19,29.96,29.81,29.66,10,10,10,14,3,17,0.00,,,207
2014-1-27,51,38,24,34,8,-2,81,37,27,30.43,30.29,29.88,10,10,10,26,14,33,0.00,,,2
2014-1-28,32,24,17,14,8,1,79,52,27,30.55,30.46,30.41,10,10,5,12,6,,0.00,,,360
2014-1-29,44,29,14,18,12,9,86,53,23,30.44,30.33,30.16,10,10,10,10,4,16,0.00,,Thunderstorm,203
2014-1-30,51,42,33,34,25,12,93,56,33,30.15,29.98,29.87,10,10,10,30,13,43,0.00,,,183
2014-1-31,60,46,33,54,45,32,100,86,72,29.93,29.86,29.79,10,9,5,14,2,18,0.00,,,176